Tracking 28514 objects as of 25-Feb-2024
HD Live streaming from Space Station
objects crossing your sky now

CUPID

Track CUPID now!
10-day predictions


NORAD ID: 49264
Int'l Code: 2021-088E
Perigee: 534.5 km
Apogee: 560.8 km
Inclination: 97.5 °
Period: 95.5 minutes
Semi major axis: 6918 km
RCS: Unknown
Launch date: September 27, 2021
Source: United States (US)
Launch site: AIR FORCE WESTERN TEST RANGE (AFWTR)
Your satellite tracking list
Your tracking list is empty




NASA's NSSDC Master Catalog

Two Line Element Set (TLE):
1 49264U 21088E   24055.41640082  .00005523  00000-0  35589-3 0  9993
2 49264  97.5064 119.5186 0019019 117.9366 242.3791 15.08577994132214
Source of the keplerian elements: AFSPC